Location: Crayja
(6.2254°N, 10.6273°W)
Time: 08:31:57
(UTC+00:00)

Cosmos 1943 - Pass Details

Date: 17 February 2020
Orbit: 832 x 852 km, 71.0° (Epoch: 08 April)

Event Time Altitude Azimuth Distance (km) Brightness Sun altitude
Rises 04:47:09 0° 183° (S) 3,371 6.4 -32.9°
Reaches altitude 10° 04:49:40 10° 177° (S) 2,435 5.7 -32.3°
Maximum altitude 04:54:59 46° 105° (ESE) 1,102 4.1 -31.0°
Drops below altitude 10° 05:00:17 10° 32° (NNE) 2,430 5.8 -29.7°
Sets 05:02:48 0° 27° (NNE) 3,363 6.5 -29.1°
